EHI
0 0 0 0 0 0 0 0 0 0 0 0 0 0 0 0 0 0 0 0 0 0 0 0 0 0 0 0 0 0 0 0 0 0 0 0 0 0 0 0 0 0 0 0
0 0 0 0 0 0 0 0 0 0 0 0 0 0 0 0 0 0 0 0 0 0 0 0 0 0 0 0 0 0 0 0 0 0 0 0 0 0 0 0 0 0 0 0
0 0 0 0 0 0 0 0 0 0 0 0 0 0 0 0 0 0 0 0 0 0 0 0 0 0 0 0 0 0 0 0 0 0 0 0 0 0 0 0 0 0 0 0
0 0 0 0 0 0 0 0 0 0 0 0 0 0 0 0 0 0 0 0 0 0 0 0 0 0 0 0 0 0 0 0 0 0 0 0 0 0 0 0 0 0 0 0
0 0 0 0 0 0 0 0 0 0 0 0 0 0 0 0 0 0 0 0 0 0 0 0 0 0 0 0 0 0 0 0 0 0 0 0 0 0 0 0 0 0 0 0
0 0 0 0 0 0 0 0 0 0 0 0 0 0 0 0 0 0 0 0 0 0 0 0 0 0 0 0 0 0 0 0 0 0 0 0 0 0 0 0 0 0 0 0
0 0 0 0 0 0 0 0 0 0 0 0 0 0 0 0 0 0 0 0 0 0 0 0 0 0 0 0 0 0 0 0 0 0 0 0 0 0 0 0 0 0 0 0
0 0 0 0 0 0 0 0 0 0 0 0 0 0 0 0 0 0 0 0 0 0 0 0 0 0 0 0 0 0 0 0 0 0 0 0 0 0 0 0 0 0 0 0
0 0 0 0 0 0 0 0 0 0 0 0 0 0 0 0 0 0 0 0 0 0 0 0 0 0 0 0 0 0 0 0 0 0 0 0 0 0 0 0 0 0 0 0
0 0 0 0 0 0 0 0 0 0 0 0 0 0 0 0 0 0 0 0 0 0 0 0 0 0 0 0 0 0 0 0 0 0 0 0 0 0 0 0 0 0 0 0
0 0 0 0 0 0 0 0 0 0 0 0 0 0 0 0 0 0 0 0 0 0 0 0 0 0 0 0 0 0 0 0 0 0 0 0 0 0 0 0 0 0 0 0
0 0 0 0 0 0 0 0 0 0 0 0 0 0 0 0 0 0 0 0 0 0 0 0 0 0 0 0 0 0 0 0 0 0 0 0 0 0 0 0 0 0 0 0
0 0 0 0 0 0 0 0 0 0 0 0 0 0 0 0 0 0 0 0 0 0 0 0 0 0 0 0 0 0 0 0 0 0 0 0 0 0 0 0 0 0 0 0
0 0 0 0 0 0 0 0 0 0 0 0 0 0 0 0 0 0 0 0 0 0 0 0 0 0 0 0 0 0 0 0 0 0 0 0 0 0 0 0 0 0 0 0
0 0 0 0 0 0 0 0 0 0 0 0 0 0 0 0 0 0 0 0 0 0 0 0 0 0 0 0 0 0 0 0 0 0 0 0 0 0 0 0 0 0 0 0
0 0 0 0 0 0 0 0 0 0 0 0 0 0 0 0 0 0 0 0 0 0 0 0 0 0 0 0 0 0 0 0 0 0 0 0 0 0 0 0 0 0 0 0
0 0 0 0 0 0 0 0 0 0 0 0 0 0 0 0 0 0 0 0 0 0 0 0 0 0 0 0 0 0 0 0 0 0 0 0 0 0 0 0 0 0 0 0
0 0 0 0 0 0 0 0 0 0 0 0 0 0 0 0 0 0 0 0 0 0 0 0 0 0 0 0 0 0 0 0 0 0 0 0 0 0 0 0 0 0 0 0
0 0 0 0 0 0 0 0 0 0 0 0 0 0 0 0 0 0 0 0 0 0 0 0 0 0 0 0 0 0 0 0 0 0 0 0 0 0 0 0 0 0 0 0
0 0 0 0 0 0 0 0 0 0 0 0 0 0 0 0 0 0 0 0 0 0 0 0 0 0 0 0 0 0 0 0 0 0 0 0 0 0 0 0 0 0 0 0
0 0 0 0 0 0 0 0 0 0 0 0 0 0 0 0 0 0 0 0 0 0 0 0 0 0 0 0 0 0 0 0 0 0 0 0 0 0 0 0 0 0 0 0
0 0 0 0 0 0 0 0 0 0 0 0 0 0 0 0 0 0 0 0 0 0 0 0 0 0 0 0 0 0 0 0 0 0 0 0 0 0 0 0 0 0 0 0
0 0 0 0 0 0 0 0 0 0 0 0 0 0 0 0 0 0 0 0 0 0 0 0 0 0 0 0 0 0 0 0 0 0 0 0 0 0 0 0 0 0 0 0
0 0 0 0 0 0 0 0 0 0 0 0 0 0 0 0 0 0 0 0 0 0 0 0 0 0 0 0 0 0 0 0 0 0 0 0 0 0 0 0 0 0 0 0
0 0 0 0 0 0 0 0 0 0 0 0 0 0 0 0 0 0 0 0 0 0 0 0 0 0 0 0 0 0 0 0 0 0 0 0 0 0 0 0 0 0 0 0
0 0 0 0 0 0 0 0 0 0 0 0 0 0 0 0 0 0 0 0 0 0 0 0 0 0 0 0 0 0 0 0 0 0 0 0 0 0 0 0 0 0 0 0
0 0 0 0 0 0 0 0 0 0 0 0 0 0 0 0 0 0 0 0 0 0 0 0 0 0 0 0 0 0 0 0 0 0 0 0 0 0 0 0 0 0 0 0
Wind_Speed
10 10 7 7 8 6 8 8 9 8 7 7 4 4 3 3 3 3 3 3 3 3 3 3 3 2 1 1 2 3 4 4 4 4 4 4 5 5 5 6 6 6 6 6
8 8 7 8 8 7 8 7 7 6 8 5 4 2 2 2 2 3 4 4 4 4 4 3 3 3 2 1 1 2 3 4 3 3 4 4 4 4 5 5 5 6 6 6
6 4 4 7 5 6 5 4 4 7 7 4 4 4 3 3 3 3 4 5 5 4 4 4 3 2 2 2 1 1 3 3 3 3 3 3 4 4 5 5 5 5 5 5
4 3 7 4 1 3 5 4 2 3 4 4 5 5 3 2 2 4 5 5 5 4 4 3 2 2 1 1 1 1 1 2 2 3 3 3 3 4 4 4 4 4 5 5
4 5 6 3 4 4 3 3 3 3 4 5 4 3 2 3 3 4 4 5 4 4 3 2 2 1 1 1 1 1 1 1 1 2 3 3 3 3 3 4 4 3 4 4
4 4 4 4 8 8 2 2 5 4 4 4 4 2 4 6 5 5 4 3 3 2 2 2 2 2 2 1 1 0 1 1 1 2 3 3 3 3 2 3 3 3 3 3
4 4 2 6 10 5 1 4 7 5 4 3 2 3 5 6 5 4 4 4 3 3 3 2 2 2 2 2 1 1 0 1 1 1 1 2 1 2 2 2 3 2 2 2
2 2 4 8 7 4 4 6 6 5 4 3 3 3 4 5 5 5 5 4 4 3 3 3 2 2 2 2 2 1 1 1 1 1 1 1 2 1 2 3 3 2 2 2
2 2 4 5 4 5 5 6 6 5 5 4 4 4 5 6 5 5 5 4 4 3 3 4 3 2 2 2 2 2 2 1 1 1 1 1 1 2 2 2 2 2 2 2
3 3 6 6 7 7 6 6 6 5 5 4 4 4 5 5 5 6 5 5 4 3 4 4 4 3 2 2 2 2 2 1 1 1 1 1 0 1 2 2 2 2 2 2
4 5 7 7 9 9 8 7 7 7 6 5 5 5 4 4 5 5 5 5 4 3 3 4 4 4 4 3 2 2 2 1 1 1 1 1 0 0 1 2 3 3 3 3
4 5 5 7 8 9 8 8 8 8 8 7 6 5 5 5 5 5 5 5 5 5 4 4 4 4 4 3 3 2 2 1 1 1 1 0 0 1 2 1 1 1 2 2
5 6 5 7 8 9 8 8 8 7 6 6 6 6 6 5 5 5 6 6 5 5 4 4 4 4 5 4 3 2 1 1 1 1 1 0 0 0 1 2 2 1 0 1
6 6 5 6 7 8 7 7 7 7 7 6 6 6 6 6 6 6 6 6 5 5 4 4 4 4 4 4 3 3 2 2 1 1 0 0 0 1 1 1 0 1 1 1
7 6 5 6 7 8 8 7 8 8 9 8 7 7 7 7 7 7 6 6 6 5 5 5 5 5 5 4 3 3 2 2 1 1 1 1 1 1 1 1 1 0 0 0
8 7 6 7 8 9 9 9 8 8 8 8 8 8 8 7 6 6 7 6 6 6 6 5 5 5 4 4 3 2 2 3 3 1 1 1 1 1 0 0 1 1 1 1
8 8 8 9 9 9 8 7 7 7 7 8 8 8 8 7 7 7 7 7 6 5 5 5 5 5 5 4 3 2 2 3 4 3 2 1 1 1 1 0 1 1 1 1
4 5 5 6 7 7 8 8 7 7 7 7 7 7 7 7 7 7 7 7 6 6 6 5 5 5 4 4 3 2 2 2 2 2 2 2 2 1 1 1 1 1 1 1
6 6 6 7 6 6 6 7 7 7 7 7 7 7 7 6 6 6 7 7 7 7 7 7 8 6 5 5 4 2 2 2 2 2 2 3 2 2 1 1 1 1 1 1
7 7 7 7 7 6 6 6 6 6 6 6 6 6 7 7 6 6 6 5 5 5 7 8 6 5 4 4 5 2 2 2 2 2 2 2 2 1 1 1 1 1 1 1
8 8 8 7 7 7 6 6 6 6 7 6 6 6 6 6 6 5 5 5 6 6 7 9 6 5 4 5 5 2 2 2 2 2 2 2 2 2 1 1 2 1 1 1
7 7 8 7 7 7 6 5 5 6 6 6 6 6 6 6 6 5 4 4 6 10 7 4 4 6 7 7 3 2 2 2 2 2 2 2 2 2 2 2 2 2 1 1
6 7 7 7 7 7 6 5 5 5 5 6 6 6 6 5 5 5 6 5 6 9 7 5 7 10 10 5 3 3 3 3 2 2 2 2 2 2 2 2 2 1 1 1
6 6 7 6 5 5 6 6 6 5 5 5 5 5 5 5 4 3 4 8 11 10 6 8 11 10 8 3 3 3 3 3 2 2 2 2 2 2 2 2 2 2 2 2
6 5 5 6 5 5 6 6 6 6 5 5 5 5 4 3 4 5 5 6 9 9 5 7 10 10 6 3 3 3 3 3 3 2 2 2 2 2 2 2 2 2 2 2
5 4 4 5 4 4 5 5 5 5 5 6 5 5 5 4 4 4 4 5 7 8 6 4 5 6 4 3 3 3 3 4 4 3 2 2 2 2 2 2 3 2 2 2
5 4 4 4 4 4 4 5 5 5 5 6 6 6 6 5 5 5 5 5 5 5 5 4 4 4 4 3 3 3 3 3 3 3 3 2 2 2 2 3 3 2 2 2
Wind_Direction
263 273 271 269 269 250 226 220 227 245 245 261 276 271 277 300 322 332 338 335 326 312 309 316 318 306 276 244 205 186 182 189 199 201 194 187 187 188 186 186 190 188 188 188
269 259 261 271 268 252 245 241 242 257 270 282 292 293 316 320 324 319 319 315 313 310 311 308 302 302 298 267 234 185 187 197 193 184 184 186 185 180 178 180 180 179 187 188
271 271 288 264 254 238 238 230 219 242 261 301 306 296 292 298 304 297 301 304 301 296 289 286 286 283 282 269 220 176 190 191 181 180 183 188 185 177 180 183 179 181 185 188
273 283 242 255 314 252 234 251 257 269 293 293 292 294 282 293 291 302 308 303 298 296 297 300 309 315 311 342 133 158 177 185 180 177 180 181 180 188 185 181 184 184 185 189
243 251 267 314 346 329 266 262 350 312 313 323 332 349 337 343 333 306 297 296 294 294 298 320 337 345 13 42 83 109 153 178 187 179 172 173 185 193 184 177 182 184 184 183
233 241 258 306 312 306 242 264 347 339 318 327 357 350 306 333 332 327 327 328 332 340 360 5 354 25 56 45 56 28 239 202 175 174 170 179 196 191 176 166 175 174 177 181
248 248 277 322 321 347 104 300 332 339 328 330 309 275 302 324 333 337 341 345 359 10 12 3 9 43 50 39 9 320 333 105 110 145 165 167 165 161 155 156 156 160 168 184
295 266 295 346 5 21 325 325 333 335 331 332 331 339 341 344 348 356 358 1 8 16 8 4 21 46 40 3 345 8 69 93 101 106 116 120 121 120 141 151 155 166 168 188
279 275 321 342 345 331 334 328 330 334 335 343 348 346 345 348 351 356 360 359 3 13 10 8 15 33 25 342 3 35 65 72 75 85 94 115 143 149 143 148 164 182 181 191
301 314 333 340 345 347 346 336 338 345 343 351 351 347 348 350 353 353 358 358 0 12 12 359 2 12 6 358 17 51 60 53 60 90 89 78 123 170 172 179 183 188 190 191
297 316 331 345 347 346 350 355 2 4 4 1 1 355 351 350 351 350 352 356 2 7 6 353 359 10 5 8 35 46 46 47 46 57 90 78 32 262 220 214 201 197 197 193
293 320 315 314 334 349 353 354 356 358 359 3 5 359 355 353 352 353 355 359 4 6 6 0 5 8 3 7 29 52 47 38 36 37 46 77 63 9 360 294 260 230 227 217
306 320 316 315 338 352 354 353 354 358 360 359 2 2 359 355 355 357 360 1 359 356 357 2 8 6 1 4 17 32 35 22 22 24 20 5 89 99 359 12 26 36 236 245
345 343 334 342 337 344 352 353 358 2 6 6 3 3 4 1 0 3 360 353 352 355 359 4 7 1 357 7 21 25 19 11 12 5 336 309 272 238 218 229 318 10 358 284
352 349 330 330 342 351 356 1 5 2 1 3 3 4 3 1 359 355 352 353 357 3 4 4 2 355 357 7 16 14 5 357 359 349 332 313 291 266 234 212 192 179 68 48
336 346 353 354 352 352 356 0 358 352 353 355 358 358 357 356 355 355 356 359 3 358 354 355 353 349 351 1 8 8 1 351 353 354 345 340 330 311 256 202 194 192 205 212
351 352 350 346 343 344 348 350 348 344 346 348 349 350 353 357 358 359 358 358 358 351 347 350 347 346 350 357 1 357 353 347 349 350 336 326 322 313 290 241 223 224 230 245
339 330 330 330 332 336 341 346 347 345 342 339 343 350 353 355 351 348 348 350 356 358 356 352 347 347 353 353 354 352 351 344 340 333 327 328 326 326 324 298 264 253 259 267
348 345 343 343 340 338 337 337 338 338 337 342 346 347 346 345 344 344 346 352 355 351 347 348 348 352 351 347 350 348 345 340 341 338 332 330 342 345 339 326 310 296 285 278
347 347 347 345 345 342 335 333 334 335 337 341 342 345 346 343 342 343 348 349 342 330 329 336 343 345 344 339 344 346 345 341 340 337 331 327 330 335 337 326 311 304 297 288
340 341 341 340 338 336 332 330 332 331 332 337 339 339 334 334 338 342 344 339 337 338 338 343 347 340 336 337 342 347 341 334 332 326 322 324 326 328 332 329 325 319 312 313
336 335 334 335 333 330 329 329 328 327 332 336 338 339 339 338 340 340 336 324 328 335 339 336 335 334 337 341 348 347 340 333 329 324 320 319 319 320 324 326 323 321 325 323
331 331 331 331 329 323 325 330 333 334 334 335 334 335 334 328 328 329 327 329 329 332 337 333 332 336 341 353 353 344 338 333 327 321 315 312 312 309 305 308 307 307 303 300
332 333 332 330 330 336 338 337 337 335 329 324 326 327 327 326 324 320 312 320 329 331 333 330 336 339 348 358 347 338 329 323 321 317 313 311 309 306 303 302 301 300 296 293
329 328 331 335 338 336 332 332 334 334 332 332 333 333 328 318 312 317 319 320 326 333 331 332 338 343 349 339 334 327 321 314 309 307 307 313 313 310 307 305 303 298 293 288
330 328 324 322 320 324 329 331 331 330 332 332 333 333 330 326 320 319 320 322 325 330 332 326 326 332 332 327 323 319 317 318 323 325 318 310 305 304 305 306 301 292 288 285
328 326 326 331 337 338 333 328 327 327 328 325 323 325 329 329 328 328 327 325 325 326 323 323 323 323 322 322 322 323 323 320 317 315 313 310 306 303 302 298 295 293 291 287